[[{"header":{"parameterUnit":"m.s-1","parameterCategory":1,"la1":30.2991,"la2":30.254,"lo1":-89.0895,"lo2":-89.0444,"dy":0.0017,"dx":0.0017,"nx":28,"ny":28,"refTime":"2023-08-12T03:00:00:Z","depth":0,"parameterNumber":2,"parameterNumberName":"U-component_of_WINDS"},"data":[0,0,0,0,0,0,0,0,0,0,0,0,0,0,0,0,0,0,0,0,0,0,0,0,0,0,0,0,0,0,0,0,0,0,0,0,0,0,0,0,0,0,0,0,0,0,0,0,0,0,0,0,0,0,0,0,0,0,4.5625,4.5626,0,4.5748,4.575,4.5751,4.5682,4.5679,4.5675,4.5672,4.5798,4.5804,4.5811,0,0,0,0,0,0,0,0,0,0,0,0,0,4.5326,4.5332,4.5624,4.5626,4.5628,4.5748,4.575,4.5751,4.5683,4.5678,4.5674,4.567,4.5796,4.5804,4.5811,0,0,0,0,0,0,0,0,0,0,0,0,0,4.5453,4.5334,4.5624,4.5608,4.5607,4.5748,4.575,4.5752,4.5684,4.5678,4.5673,4.5668,4.5793,4.5803,4.5813,4.5976,0,0,4.5843,4.5847,0,0,0,0,0,0,0,0,4.5446,4.5464,4.5609,4.5609,4.5609,4.5694,4.5691,4.5827,4.5685,4.5655,4.5672,4.5666,4.5768,4.5779,4.5814,4.5982,4.5987,4.5843,4.5849,4.5854,4.5856,0,0,0,0,0,0,0,4.5437,4.5459,4.5673,4.5611,4.5611,4.5593,4.5606,4.5716,4.5738,4.5657,4.5652,4.5668,4.5767,4.5804,4.5816,4.5989,4.5843,4.5852,4.5858,4.5862,4.6293,4.6299,0,0,0,0,0,0,4.543,4.5452,4.5669,4.5677,4.5513,4.5603,4.5617,4.5672,4.5737,4.5742,4.5672,4.5664,4.579,4.5805,4.582,4.6013,4.5853,4.5863,4.5868,4.6288,4.6294,4.6301,0,0,0,0,0,0,4.5424,4.545,4.5664,4.5563,4.5589,4.5614,4.5676,4.5677,4.5715,4.5749,4.5752,4.5707,4.5787,4.5807,4.5937,4.6016,4.5867,4.5876,4.6281,4.629,4.6298,4.6401,0,0,0,0,0,0,4.5415,4.5448,4.5511,4.5565,4.5595,4.578,4.5681,4.5684,4.5732,4.5723,4.5782,4.5787,4.5784,4.5923,4.5947,4.6027,4.5884,4.6274,4.6285,4.6295,4.639,4.6412,4.643,0,0,0,0,0,4.5405,4.5536,4.5515,4.5541,4.5674,4.5785,4.5801,4.5796,4.5739,4.5801,4.5823,4.5785,4.6004,4.5937,4.5963,4.6048,4.6269,4.6282,4.6294,4.6381,4.6407,4.6429,0,0,0,0,0,0,4.5491,4.5543,4.552,4.5672,4.5725,4.5773,4.5852,4.5825,4.5894,4.5883,4.5873,4.5887,4.6022,4.6048,4.5972,4.6207,4.6127,4.6146,4.6185,4.621,4.6229,4.6219,4.5892,0,0,0,0,0,4.5527,4.5614,4.5654,4.5785,4.5812,4.5828,4.5876,4.5867,4.5921,4.5942,4.5973,4.6027,4.6107,4.616,4.6237,4.6395,4.6405,4.6466,4.6485,4.6501,4.6517,4.6599,4.6625,4.6342,4.6342,4.6341,0,0,4.5604,4.5643,4.5698,4.5803,4.5842,4.593,4.5847,4.5944,4.6009,4.5957,4.6081,4.6106,4.6164,4.6308,4.6373,4.6334,4.6597,4.6517,4.653,4.6537,4.6614,4.6641,4.6665,4.635,4.6349,4.6347,0,0,4.5788,4.5827,4.5938,4.598,4.604,4.6049,4.6076,4.6129,4.6143,4.6267,4.623,4.6306,4.6446,4.6488,4.6528,4.6726,4.6693,4.6752,4.6854,4.6934,4.6956,4.6976,4.7043,4.7068,4.6767,4.6768,4.6768,0,4.5875,4.6006,4.5999,4.6099,4.6145,4.6102,4.6214,4.6254,4.6337,4.6369,4.6324,4.6497,4.6534,4.6685,4.6733,4.6768,4.6796,4.6744,4.6954,4.6974,4.6992,4.7056,4.7082,4.6774,4.6773,4.6773,4.6772,0,4.6109,4.6201,4.6283,4.6363,4.6419,4.6524,4.6531,4.6589,4.6575,4.6589,4.6714,4.6757,4.684,4.6876,4.6864,4.7025,4.6998,4.6955,4.6874,4.7025,4.7085,4.711,4.6783,4.6781,4.6779,4.6777,0,0,4.635,4.6423,4.6453,4.6488,4.6551,4.6621,4.6724,4.6804,4.6852,4.6911,4.6994,4.7113,4.7072,4.7117,4.711,4.7181,4.733,4.7127,4.7128,4.7161,4.7507,4.7537,4.7566,4.731,4.7314,4.7318,4.7501,0,4.6535,4.6714,4.6709,4.6875,4.6958,4.6918,4.7007,4.7055,4.707,4.7142,4.7159,4.7242,4.7183,4.7209,4.7278,4.7298,4.7399,4.7285,4.7385,4.7389,4.7369,4.7598,4.7631,4.7801,4.7524,4.7528,4.7531,0,4.6775,4.684,4.7014,4.7062,4.7097,4.7177,4.7248,4.7319,4.7371,4.7377,4.7427,4.7408,4.751,4.7428,4.7567,4.7489,4.753,4.7546,4.7553,4.756,4.7467,4.7608,4.7856,4.788,4.7569,4.7566,4.7563,0,4.6928,4.706,4.718,4.7211,4.7272,4.7328,4.7356,4.7404,4.7451,4.7515,4.7545,4.762,4.766,4.7717,4.7718,4.7659,4.7858,4.7777,4.7863,4.7863,4.7905,4.7902,4.816,4.7937,4.7937,4.7936,4.7936,0,4.7134,4.7241,4.7249,4.7323,4.7441,4.7435,4.7552,4.7574,4.7616,4.7692,4.7664,4.7735,4.7733,4.7806,4.7808,4.7921,4.794,4.7946,4.7945,4.7947,4.7946,4.7972,4.7959,4.7943,4.7941,4.794,4.7939,0,4.7325,4.7336,4.7463,4.7509,4.7523,4.7608,4.7647,4.7716,4.7729,4.7825,4.7847,4.7867,4.795,4.7957,4.8055,4.8056,4.8192,4.8179,4.8174,4.8171,4.8255,4.8246,4.8537,4.8573,4.8329,4.8332,4.8334,0,4.7454,4.7535,4.759,4.7639,4.7669,4.7749,4.7797,4.7794,4.7845,4.791,4.797,4.8051,4.8115,4.8251,4.8273,4.8347,4.8334,4.8431,4.8345,4.8343,4.8331,4.8325,4.8331,4.8446,4.8449,4.8451,4.8453,0,4.7681,4.7682,4.7752,4.7825,4.7883,4.794,4.7993,4.8034,4.8037,4.8096,4.8181,4.8231,4.8329,4.8409,4.8481,4.8508,4.8481,4.848,4.8503,4.8505,4.8497,4.8499,4.8216,4.8473,4.8471,4.847,4.8468,4.8468,4.7843,4.7912,4.796,4.8039,4.8079,4.8128,4.8194,4.8215,4.8286,4.8365,4.8359,4.8452,4.8501,4.8594,4.8627,4.8699,4.8666,4.8701,4.8709,4.8717,4.8724,4.8488,4.8712,4.8712,4.8711,4.8711,4.871,0,4.8065,4.8094,4.8167,4.8241,4.8303,4.8272,4.8329,4.8382,4.8464,4.8512,4.8575,4.8671,4.8748,4.8776,4.885,4.8902,4.8891,4.8922,4.8916,4.8922,4.8751,4.8721,4.8929,4.8929,4.8929,4.8929,4.8929,4.8929,4.8188,4.8302,4.8308,4.844,4.8468,4.8559,4.8593,4.8638,4.8676,4.8784,4.8848,4.8865,4.8904,4.8981,4.9049,4.9055,4.9082,4.9118,4.9118,4.8957,4.8935,4.8914,4.8886,4.9124,4.9125,4.9283,4.9284,4.9286]},{"header":{"parameterUnit":"m.s-1","parameterCategory":1,"la1":30.2991,"la2":30.254,"lo1":-89.0895,"lo2":-89.0444,"dy":0.0017,"dx":0.0017,"nx":28,"ny":28,"refTime":"2023-08-12T03:00:00:Z","depth":0,"parameterNumber":3,"parameterNumberName":"V-component_of_WINDS"},"data":[0,0,0,0,0,0,0,0,0,0,0,0,0,0,0,0,0,0,0,0,0,0,0,0,0,0,0,0,0,0,0,0,0,0,0,0,0,0,0,0,0,0,0,0,0,0,0,0,0,0,0,0,0,0,0,0,0,0,1.393,1.3931,0,1.4015,1.4016,1.4017,1.401,1.4009,1.4007,1.4006,1.4094,1.4098,1.4101,0,0,0,0,0,0,0,0,0,0,0,0,0,1.3761,1.3765,1.393,1.3931,1.3932,1.4015,1.4016,1.4017,1.401,1.4009,1.4007,1.4006,1.4093,1.4097,1.4102,0,0,0,0,0,0,0,0,0,0,0,0,0,1.3839,1.3766,1.393,1.3939,1.394,1.4015,1.4016,1.4018,1.4011,1.4009,1.4007,1.4005,1.4092,1.4097,1.4102,1.4174,0,0,1.4119,1.4121,0,0,0,0,0,0,0,0,1.3835,1.3846,1.3936,1.3938,1.394,1.4,1.3989,1.407,1.4011,1.3984,1.4006,1.4004,1.4065,1.4072,1.4092,1.4178,1.4182,1.4119,1.4122,1.4125,1.4126,0,0,0,0,0,0,0,1.383,1.3842,1.3964,1.3938,1.394,1.3938,1.3947,1.4004,1.4034,1.3986,1.3986,1.3996,1.4065,1.4087,1.4094,1.4183,1.4119,1.4124,1.4127,1.4129,1.4331,1.4333,0,0,0,0,0,0,1.3822,1.3837,1.3961,1.3966,1.3882,1.3943,1.3953,1.3983,1.4034,1.4039,1.3997,1.3995,1.4079,1.4088,1.4097,1.4184,1.4125,1.413,1.4133,1.4329,1.4332,1.4334,0,0,0,0,0,0,1.3819,1.3833,1.3958,1.3902,1.3918,1.3948,1.3981,1.3985,1.4007,1.4042,1.4047,1.4014,1.4078,1.409,1.4155,1.4187,1.4132,1.4137,1.4326,1.433,1.4333,1.4359,0,0,0,0,0,0,1.3814,1.3832,1.386,1.3903,1.3921,1.4014,1.3984,1.3989,1.4016,1.4014,1.4059,1.4065,1.4077,1.4147,1.416,1.4194,1.4141,1.4324,1.4328,1.4332,1.4356,1.4363,1.4369,0,0,0,0,0,1.3808,1.3864,1.3861,1.3876,1.3956,1.4016,1.4026,1.4039,1.4019,1.4047,1.4069,1.4064,1.4181,1.4154,1.4168,1.4204,1.4322,1.4327,1.4331,1.4353,1.4361,1.4369,0,0,0,0,0,0,1.3826,1.387,1.3867,1.394,1.3974,1.4014,1.405,1.4048,1.4089,1.4086,1.41,1.411,1.4175,1.4196,1.4164,1.4276,1.4249,1.4257,1.426,1.4269,1.4275,1.4269,1.4145,0,0,0,0,0,1.3838,1.3883,1.3919,1.3979,1.3996,1.402,1.4047,1.4053,1.409,1.4104,1.4131,1.4167,1.4212,1.4241,1.4285,1.4358,1.4367,1.439,1.4397,1.4402,1.4409,1.4449,1.4459,1.435,1.435,1.435,0,0,1.3864,1.3894,1.3921,1.3984,1.4011,1.4057,1.4033,1.4083,1.4117,1.4112,1.4175,1.4196,1.4236,1.4305,1.4337,1.4325,1.4441,1.4408,1.4412,1.4417,1.4455,1.4465,1.4474,1.4353,1.4353,1.4352,0,0,1.3935,1.3962,1.4015,1.4042,1.4083,1.4099,1.4111,1.4152,1.4165,1.4228,1.4225,1.4266,1.4343,1.4372,1.4396,1.4476,1.4472,1.4489,1.4526,1.4564,1.4573,1.458,1.4608,1.4618,1.4496,1.4496,1.4496,0,1.3962,1.4031,1.4042,1.4092,1.4119,1.4116,1.4169,1.4195,1.4249,1.4268,1.4253,1.4348,1.4376,1.4451,1.447,1.449,1.4505,1.4485,1.457,1.4578,1.4586,1.4613,1.4623,1.4498,1.4498,1.4498,1.4498,0,1.4062,1.411,1.4148,1.4199,1.423,1.4281,1.43,1.433,1.4333,1.435,1.4413,1.4445,1.4494,1.4512,1.4517,1.4588,1.4579,1.4567,1.4541,1.4598,1.4623,1.4634,1.4501,1.45,1.45,1.4499,0,0,1.4149,1.4204,1.4217,1.424,1.4284,1.4321,1.4372,1.4419,1.4445,1.4481,1.4524,1.4588,1.4577,1.4605,1.4612,1.4645,1.4706,1.4629,1.463,1.4642,1.4786,1.4795,1.4807,1.4703,1.4705,1.4706,1.4782,0,1.4224,1.4314,1.4324,1.4404,1.4448,1.4444,1.4488,1.452,1.4536,1.4576,1.4594,1.4639,1.4621,1.4637,1.467,1.4691,1.4735,1.4686,1.4743,1.4745,1.4733,1.482,1.4831,1.4901,1.4793,1.4794,1.4796,0,1.4325,1.4363,1.4447,1.4484,1.4503,1.4542,1.4586,1.4623,1.4659,1.4668,1.4699,1.4701,1.4752,1.4723,1.4794,1.4761,1.4784,1.4798,1.4801,1.4807,1.4774,1.4829,1.4924,1.4935,1.4811,1.481,1.4809,0,1.438,1.4452,1.4511,1.4531,1.4575,1.4603,1.4623,1.4656,1.4684,1.4721,1.4739,1.4783,1.4807,1.484,1.4854,1.4831,1.4924,1.4896,1.4934,1.4934,1.4955,1.4953,1.5055,1.4969,1.4969,1.4968,1.4968,0,1.4463,1.4515,1.4536,1.4573,1.463,1.4641,1.4697,1.4716,1.4745,1.4785,1.4784,1.4822,1.4837,1.4877,1.4888,1.4945,1.4956,1.4965,1.4967,1.4965,1.4964,1.4982,1.4977,1.4971,1.4971,1.497,1.497,0,1.4534,1.4551,1.4615,1.4652,1.4662,1.4702,1.4733,1.4768,1.4783,1.4834,1.4846,1.487,1.4917,1.4933,1.499,1.4997,1.5063,1.5061,1.5051,1.5052,1.5089,1.5085,1.5205,1.5221,1.5125,1.5126,1.5126,0,1.4587,1.4626,1.4666,1.4693,1.4713,1.4756,1.4783,1.4795,1.4824,1.4866,1.4896,1.4942,1.498,1.5054,1.5076,1.5119,1.5119,1.5158,1.5125,1.5122,1.512,1.5117,1.5121,1.5164,1.5165,1.5166,1.5167,0,1.4678,1.4684,1.4724,1.4766,1.4798,1.4832,1.4865,1.4887,1.4903,1.4935,1.4982,1.5011,1.5068,1.5114,1.5158,1.5178,1.5175,1.5176,1.5187,1.5186,1.5179,1.5183,1.5068,1.5174,1.5173,1.5173,1.5172,1.5172,1.4742,1.4777,1.481,1.4853,1.4879,1.4909,1.4944,1.4962,1.5002,1.5049,1.5053,1.5104,1.5137,1.5195,1.5217,1.5257,1.5246,1.5262,1.5266,1.527,1.5273,1.5172,1.5265,1.5265,1.5264,1.5264,1.5264,0,1.4834,1.4854,1.4894,1.494,1.4974,1.4967,1.5002,1.5031,1.5076,1.5107,1.5143,1.5197,1.524,1.5265,1.5309,1.5336,1.5336,1.5347,1.5346,1.535,1.528,1.5266,1.5346,1.5346,1.5346,1.5346,1.5346,1.5346,1.4885,1.4943,1.4952,1.5022,1.5042,1.5092,1.5112,1.514,1.5165,1.5224,1.526,1.5276,1.5304,1.535,1.5389,1.5395,1.5412,1.5424,1.5429,1.5364,1.5355,1.5347,1.5334,1.5428,1.5428,1.5496,1.5497,1.5497]}]]